CYTQ

Tasiujaq Airport

ICAO Code CYTQ
IATA Code YTQ
Name Tasiujaq Airport
Location Tasiujaq, Quebec, CA
Elevation 121 Feet / 36.9 Meters
Latitude 58.66777778
Longitude -69.95583333
METAR CYTQ 252100Z 22008G19KT 200V280 15SM FEW010 SCT030 02/M01 A3004 RMK SC2SC1 LAST OBS NEXT/261200 UTC SLP178
Extra information Display Charts and CFS
Display NOTAMS
Runway Length Width Surface Elevation
05 3519 ft 100 ft GRAVEL 121 ft
23 3519 ft 100 ft GRAVEL 103 ft